1496008801.17,58145,18.38,74542.3,4.39,-30.45,-30.77,0,*7F
1496008802.43,58146,18.38,74544.3,4.39,-30.27,-30.73,0,*7C
1496008803.68,58147,18.38,74546.5,4.35,-30.45,-30.89,0,*70
1496008804.95,58148,18.38,74542.8,4.39,-30.61,-31.11,0,*75
1496008806.19,58149,18.38,74540.5,4.35,-30.61,-31.01,0,*79
1496008807.46,58150,18.38,74544.8,4.35,-30.55,-30.95,0,*7A
1496008808.7,58151,18.38,74538.3,4.35,-30.45,-30.95,0,*7A
1496008809.97,58152,18.38,74544.3,4.35,-30.39,-30.77,0,*7E
1496008811.25,58153,18.38,74544.0,4.35,-30.39,-30.73,0,*7B
1496008812.5,58154,18.38,74544.8,4.35,-30.45,-30.89,0,*72
1496008813.76,58155,18.38,74542.3,4.35,-30.61,-30.95,0,*78
1496008815.01,58156,18.38,74544.3,4.35,-30.45,-30.89,0,*70
1496008816.26,58157,18.38,74542.3,4.35,-30.61,-31.01,0,*76
1496008817.52,58158,18.38,74544.0,4.35,-30.55,-30.95,0,*72
1496008818.79,58159,18.38,74542.3,4.35,-30.39,-30.77,0,*75
1496008820.07,58160,18.38,74542.5,4.35,-30.39,-30.89,0,*7E
1496008821.31,58161,18.38,74544.0,4.35,-30.55,-31.01,0,*74
1496008822.56,58162,18.38,74544.0,4.35,-30.61,-31.17,0,*77
1496008823.83,58163,18.31,74540.5,4.39,-30.39,-30.77,0,*70
1496008825.11,58164,18.38,74542.3,4.35,-30.39,-30.77,0,*7B
1496008826.38,58165,18.38,74540.8,4.35,-30.61,-31.11,0,*76
1496008827.62,58166,18.38,74542.5,4.35,-30.55,-31.17,0,*74
1496008828.86,58167,18.31,74540.5,4.35,-30.61,-31.01,0,*75
1496008830.12,58168,18.38,74544.5,4.35,-30.45,-30.77,0,*7C
1496008831.37,58169,18.38,74546.8,4.35,-30.45,-30.77,0,*7D
1496008832.64,58170,18.38,74542.3,4.39,-30.61,-30.95,0,*73
1496008833.88,58171,18.38,74544.0,4.39,-30.45,-30.95,0,*74
1496008835.15,58172,18.38,74546.5,4.35,-30.55,-30.89,0,*77
1496008836.4,58173,18.38,74546.8,4.39,-30.73,-31.17,0,*78
1496008837.65,58174,18.38,74548.0,4.35,-30.73,-31.17,0,*73
1496008838.89,58175,18.38,74544.3,4.39,-30.61,-31.01,0,*7A
1496008840.16,58176,18.38,74546.0,4.35,-30.61,-30.95,0,*79
1496008841.41,58177,18.38,74544.8,4.35,-30.45,-30.77,0,*72
1496008842.66,58178,18.31,74546.0,4.35,-30.45,-30.89,0,*7C
1496008843.93,58179,18.38,74546.3,4.35,-30.61,-30.95,0,*76
1496008845.18,58180,18.38,74542.5,4.39,-30.61,-31.01,0,*70
1496008846.44,58181,18.31,74544.0,4.35,-30.61,-30.95,0,*71
1496008847.71,58182,18.38,74546.0,4.39,-30.61,-30.95,0,*7E
1496008848.96,58183,18.31,74542.5,4.39,-30.61,-31.01,0,*73
1496008850.2,58184,18.31,74542.3,4.35,-30.61,-31.01,0,*78
1496008851.47,58185,18.38,74544.3,4.35,-30.61,-31.11,0,*78
1496008852.72,58186,18.31,74542.8,4.35,-30.89,-31.33,0,*7D
1496008853.96,58187,18.38,74546.5,4.35,-30.89,-31.33,0,*7C
1496008855.21,58188,18.31,74542.8,4.35,-30.77,-31.17,0,*74
1496008856.49,58189,18.31,74540.8,4.39,-30.73,-31.11,0,*7B
1496008857.74,58190,18.38,74544.0,4.35,-30.77,-31.29,0,*70
1496008858.99,58191,18.31,74542.8,4.35,-30.73,-31.17,0,*78
1496008860.26,58192,18.31,74544.8,4.35,-30.73,-31.11,0,*7D
1496008861.52,58193,18.38,74544.5,4.35,-30.77,-31.17,0,*7E
1496008862.79,58194,18.38,74544.8,4.35,-30.73,-31.11,0,*7B
1496008864.04,58195,18.38,74544.8,4.35,-30.77,-31.17,0,*78
1496008865.29,58196,18.31,74540.3,4.35,-30.61,-31.01,0,*7B
1496008866.53,58197,18.38,74546.8,4.35,-30.61,-31.01,0,*7A
1496008867.77,58198,18.31,74546.3,4.35,-30.61,-31.01,0,*75
1496008869.0,58199,18.38,74546.0,4.33,-30.77,-31.05,0,*71
1496008870.2,58200,18.31,74540.0,4.33,-30.67,-31.01,0,*77
1496008871.43,58201,18.31,74544.3,4.33,-30.61,-31.01,0,*70
1496008872.65,58202,18.31,74542.0,4.33,-30.61,-31.01,0,*73
1496008873.88,58203,18.31,74544.5,4.33,-30.61,-31.05,0,*76
1496008875.08,58204,18.38,74546.3,4.33,-30.67,-31.01,0,*73
1496008876.34,58205,18.31,74542.8,4.35,-30.55,-30.95,0,*79
1496008877.59,58206,18.31,74540.8,4.35,-30.61,-31.01,0,*71
1496008878.84,58207,18.31,74544.8,4.35,-30.73,-31.17,0,*74
1496008880.11,58208,18.31,74544.3,4.35,-30.73,-31.11,0,*7D
1496008881.34,58209,18.38,74544.3,4.33,-30.61,-31.05,0,*7C
1496008882.61,58210,18.31,74544.0,4.35,-30.61,-31.11,0,*77
1496008883.86,58211,18.31,74544.8,4.35,-30.73,-31.29,0,*7E
1496008885.11,58212,18.31,74540.5,4.35,-30.77,-31.17,0,*74
1496008886.38,58213,18.31,74542.3,4.35,-30.73,-31.11,0,*77
1496008887.65,58214,18.31,74544.0,4.35,-30.55,-30.95,0,*79
1496008888.92,58215,18.31,74540.5,4.35,-30.61,-31.11,0,*72
1496008890.17,58216,18.31,74544.0,4.35,-30.77,-31.17,0,*70
1496008891.41,58217,18.31,74546.8,4.35,-30.61,-31.01,0,*71
1496008892.67,58218,18.31,74544.0,4.35,-30.77,-31.17,0,*7E
1496008893.94,58219,18.31,74542.8,4.35,-30.73,-31.11,0,*7D
1496008895.17,58220,18.31,74542.0,4.33,-30.77,-31.17,0,*73
1496008896.37,58221,18.31,74546.5,4.33,-30.67,-31.05,0,*70
1496008897.6,58222,18.31,74544.3,4.33,-30.61,-31.01,0,*71
1496008898.87,58223,18.31,74544.0,4.35,-30.61,-31.11,0,*77
1496008900.14,58224,18.31,74542.8,4.35,-30.61,-31.11,0,*70
1496008901.38,58225,18.31,74544.0,4.33,-30.67,-31.23,0,*70
1496008902.58,58226,18.31,74542.8,4.33,-30.83,-31.33,0,*78
1496008903.81,58227,18.31,74542.8,4.33,-30.77,-31.01,0,*73
1496008905.01,58228,18.31,74542.3,4.33,-30.67,-31.05,0,*79
1496008906.27,58229,18.31,74546.8,4.31,-30.67,-31.23,0,*7E
1496008907.52,58230,18.31,74540.5,4.35,-30.77,-31.33,0,*72
1496008908.74,58231,18.31,74542.5,4.33,-30.95,-31.33,0,*79
1496008909.97,58232,18.31,74544.8,4.33,-30.77,-31.17,0,*70
1496008911.18,58233,18.31,74544.0,4.33,-30.67,-31.17,0,*70
1496008912.41,58234,18.31,74544.8,4.33,-30.77,-31.33,0,*70
1496008913.63,58235,18.38,74546.3,4.33,-30.77,-31.33,0,*71
1496008914.84,58236,18.31,74546.8,4.33,-30.83,-31.17,0,*7F
1496008916.07,58237,18.31,74544.5,4.31,-30.67,-31.05,0,*75
1496008917.3,58238,18.31,74546.0,4.33,-30.61,-31.05,0,*7E
1496008918.53,58239,18.31,74546.0,4.33,-30.77,-31.17,0,*7B
1496008919.73,58240,18.38,74548.0,4.33,-30.83,-31.33,0,*78
1496008920.97,58241,18.31,74544.5,4.31,-30.67,-31.17,0,*77
1496008922.19,58242,18.31,74544.5,4.31,-30.83,-31.33,0,*78
1496008923.45,58243,18.31,74542.3,4.33,-30.77,-31.23,0,*71
1496008924.66,58244,18.31,74546.5,4.33,-30.67,-31.17,0,*70
1496008925.87,58245,18.31,74542.3,4.33,-30.67,-31.17,0,*71
1496008927.1,58246,18.31,74544.5,4.31,-30.83,-31.33,0,*7C
1496008928.35,58247,18.31,74542.0,4.31,-30.77,-31.33,0,*76
1496008929.58,58248,18.31,74544.3,4.31,-30.83,-31.33,0,*72
1496008930.84,58249,18.31,74546.3,4.33,-30.77,-31.23,0,*7B
1496008932.09,58250,18.31,74546.5,4.31,-30.77,-31.17,0,*76
1496008933.32,58251,18.31,74542.0,4.31,-30.67,-31.05,0,*75
1496008934.53,58252,18.31,74544.5,4.33,-30.67,-31.17,0,*77
1496008935.76,58253,18.31,74544.3,4.31,-30.83,-31.33,0,*78
1496008937.02,58254,18.31,74544.3,4.31,-30.77,-31.17,0,*72
1496008938.27,58255,18.31,74546.8,4.35,-30.73,-31.17,0,*73
1496008939.5,58256,18.31,74544.3,4.31,-30.67,-31.01,0,*76
1496008940.73,58257,18.31,74544.0,4.33,-30.83,-31.23,0,*7F
1496008942.01,58258,18.31,74544.8,4.31,-30.95,-31.39,0,*7E
1496008943.29,58259,18.31,74548.8,4.31,-30.95,-31.39,0,*7F
1496008944.55,58260,18.31,74544.8,4.31,-30.77,-31.33,0,*73
1496008945.8,58261,18.31,74540.8,4.31,-30.77,-31.17,0,*74
1496008947.06,58262,18.31,74544.3,4.31,-30.77,-31.05,0,*74
1496008948.31,58263,18.31,74544.0,4.31,-30.77,-31.17,0,*76
1496008949.54,58264,18.31,74544.8,4.33,-30.83,-31.39,0,*74
1496008950.77,58265,18.31,74544.3,4.31,-30.83,-31.33,0,*7D
1496008952.01,58266,18.31,74546.8,4.33,-30.83,-31.23,0,*7D
1496008953.24,58267,18.31,74544.0,4.31,-30.83,-31.33,0,*7F
1496008954.49,58268,18.31,74544.3,4.29,-30.89,-31.39,0,*79
1496008955.72,58269,18.31,74544.5,4.27,-30.95,-31.45,0,*70
1496008956.97,58270,18.31,74544.0,4.29,-30.89,-31.39,0,*70
1496008958.21,58271,18.31,74544.5,4.29,-30.83,-31.23,0,*70
1496008959.46,58272,18.31,74544.3,4.29,-30.89,-31.23,0,*79
1496008960.72,58273,18.31,74544.3,4.29,-30.73,-31.23,0,*7D
1496008961.95,58274,18.31,74546.8,4.29,-30.83,-31.39,0,*7E
1496008963.2,58275,18.31,74546.0,4.27,-30.95,-31.51,0,*78
1496008964.4,58276,18.31,74544.5,4.29,-31.01,-31.45,0,*7C
1496008965.61,58277,18.31,74548.3,4.29,-31.01,-31.45,0,*7D
1496008966.84,58278,18.31,74544.3,4.29,-30.83,-31.23,0,*79
1496008968.06,58279,18.31,74546.0,4.27,-30.89,-31.33,0,*7D
1496008969.28,58280,18.31,74544.5,4.27,-30.95,-31.33,0,*76
1496008970.5,58281,18.31,74548.8,4.27,-30.95,-31.33,0,*77
1496008971.71,58282,18.31,74546.0,4.29,-30.83,-31.29,0,*76
1496008972.93,58283,18.31,74548.8,4.27,-30.77,-31.29,0,*72
1496008974.18,58284,18.31,74546.8,4.29,-30.73,-31.23,0,*75
1496008975.39,58285,18.31,74548.5,4.29,-30.67,-31.05,0,*75
1496008976.59,58286,18.31,74546.0,4.29,-30.67,-31.01,0,*72
1496008977.8,58287,18.31,74542.0,4.29,-30.67,-31.01,0,*73
1496008979.03,58288,18.31,74544.8,4.31,-30.67,-31.05,0,*71
1496008980.26,58289,18.31,74546.5,4.29,-30.73,-31.05,0,*7C
1496008981.48,58290,18.31,74542.8,4.29,-30.73,-31.05,0,*74
1496008982.74,58291,18.31,74544.5,4.29,-30.73,-31.11,0,*70
1496008983.97,58292,18.31,74542.0,4.29,-30.89,-31.29,0,*7D
1496008985.23,58293,18.31,74544.3,4.29,-30.89,-31.23,0,*76
1496008986.46,58294,18.31,74544.8,4.29,-30.83,-31.23,0,*7B
1496008987.72,58295,18.31,74546.8,4.29,-30.73,-31.23,0,*75
1496008988.94,58296,18.31,74546.0,4.27,-30.73,-31.29,0,*72
1496008990.16,58297,18.31,74542.3,4.27,-30.77,-31.29,0,*77
1496008991.38,58298,18.31,74544.0,4.27,-30.77,-31.33,0,*73
1496008992.61,58299,18.31,74544.5,4.29,-30.89,-31.29,0,*76
1496008993.83,58300,18.31,74540.8,4.27,-30.89,-31.45,0,*73
1496008995.05,58301,18.31,74546.0,4.27,-30.95,-31.33,0,*7E
1496008996.28,58302,18.31,74546.5,4.29,-30.73,-31.05,0,*7E
1496008997.51,58303,18.31,74546.0,4.29,-30.73,-31.01,0,*7B
1496008998.75,58304,18.31,74546.8,4.27,-30.77,-31.11,0,*77
1496008999.99,58305,18.31,74544.3,4.29,-30.67,-31.11,0,*79
1496009001.19,58306,18.31,74540.8,4.29,-30.67,-31.05,0,*7F
1496009002.45,58307,18.31,74546.8,4.29,-30.73,-31.11,0,*7E
1496009003.67,58308,18.31,74542.5,4.27,-30.73,-31.17,0,*79
1496009004.91,58309,18.31,74546.8,4.27,-30.73,-31.11,0,*7E
1496009006.13,58310,18.31,74544.0,4.27,-30.77,-31.17,0,*74
1496009007.37,58311,18.31,74546.0,4.29,-30.67,-31.11,0,*7C
1496009008.62,58312,18.31,74542.8,4.29,-30.77,-31.11,0,*7E
1496009009.84,58313,18.31,74544.5,4.27,-30.77,-31.17,0,*77
1496009011.07,58314,18.31,74546.5,4.29,-30.77,-31.05,0,*7D
1496009012.29,58315,18.31,74544.3,4.27,-30.77,-31.05,0,*72
1496009013.51,58316,18.31,74544.0,4.27,-30.73,-31.05,0,*75
1496009014.73,58317,18.31,74544.5,4.27,-30.77,-31.17,0,*73
1496009015.96,58318,18.31,74546.5,4.27,-30.77,-31.29,0,*71
1496009017.18,58319,18.31,74548.5,4.27,-30.73,-31.17,0,*79
1496009018.4,58320,18.31,74546.3,4.27,-30.77,-31.17,0,*77
1496009019.66,58321,18.31,74544.3,4.29,-30.51,-30.89,0,*7A
1496009020.9,58322,18.31,74544.3,4.27,-30.55,-30.89,0,*73
1496009022.12,58323,18.31,74544.5,4.29,-30.55,-31.05,0,*79
1496009023.34,58324,18.31,74542.5,4.27,-30.73,-31.17,0,*77
1496009024.55,58325,18.31,74546.8,4.29,-30.83,-31.29,0,*7A
1496009025.81,58326,18.31,74546.8,4.29,-30.73,-31.11,0,*7D
1496009027.01,58327,18.31,74550.3,4.29,-30.67,-31.05,0,*7C
1496009028.21,58328,18.31,74546.5,4.29,-30.67,-31.05,0,*73
1496009029.43,58329,18.31,74546.8,4.27,-30.73,-31.05,0,*79
1496009030.65,58330,18.31,74544.5,4.27,-30.73,-31.05,0,*71
1496009031.91,58331,18.31,74544.3,4.29,-30.73,-31.23,0,*7A
1496009033.13,58332,18.31,74546.8,4.27,-30.73,-31.17,0,*70
1496009034.34,58333,18.31,74544.5,4.29,-30.67,-31.05,0,*79
1496009035.57,58334,18.31,74544.0,4.29,-30.67,-31.11,0,*7B
1496009036.81,58335,18.31,74542.5,4.27,-30.73,-31.11,0,*71
1496009038.06,58336,18.31,74546.3,4.27,-30.73,-31.11,0,*72
1496009039.32,58337,18.31,74544.8,4.29,-30.73,-31.23,0,*7C
1496009040.55,58338,18.31,74544.0,4.29,-30.73,-31.29,0,*79
1496009041.8,58339,18.31,74546.8,4.29,-30.73,-31.11,0,*73
1496009043.02,58340,18.31,74542.8,4.27,-30.77,-31.17,0,*71
1496009044.28,58341,18.31,74546.3,4.29,-30.73,-31.11,0,*7C
1496009045.48,58342,18.31,74548.0,4.29,-30.67,-31.05,0,*7F
1496009046.71,58343,18.31,74548.3,4.27,-30.67,-31.11,0,*75
1496009047.95,58344,18.31,74544.5,4.27,-30.73,-31.11,0,*77
1496009049.17,58345,18.31,74544.3,4.27,-30.77,-31.33,0,*72
1496009050.39,58346,18.31,74546.3,4.27,-30.77,-31.29,0,*7A
1496009051.62,58347,18.31,74544.8,4.29,-30.73,-31.05,0,*7F
1496009052.87,58348,18.31,74544.8,4.27,-30.73,-31.11,0,*7B
1496009054.08,58349,18.31,74546.0,4.27,-30.89,-31.33,0,*7F
1496009055.31,58350,18.31,74544.3,4.29,-30.67,-31.11,0,*79
1496009056.54,58351,18.31,74544.3,4.29,-30.55,-31.01,0,*78
1496009057.78,58352,18.31,74546.5,4.27,-30.73,-31.11,0,*70
1496009059.0,58353,18.31,74546.3,4.27,-30.73,-31.17,0,*77
1496009060.22,58354,18.31,74546.0,4.27,-30.89,-31.29,0,*78
1496009061.43,58355,18.31,74548.0,4.29,-30.67,-31.05,0,*79
1496009062.66,58356,18.31,74544.3,4.29,-30.67,-31.11,0,*7F
1496009063.89,58357,18.31,74544.0,4.29,-30.51,-31.01,0,*7A
1496009065.11,58358,18.31,74546.3,4.27,-30.77,-31.29,0,*75
1496009066.35,58359,18.31,74544.8,4.27,-30.73,-31.11,0,*7B
1496009067.6,58360,18.31,74550.5,4.27,-30.77,-31.11,0,*75
1496009068.8,58361,18.31,74546.8,4.27,-30.67,-31.01,0,*74
1496009070.04,58362,18.31,74548.5,4.27,-30.73,-31.11,0,*73
1496009071.3,58363,18.31,74544.0,4.29,-30.73,-31.23,0,*7D
1496009072.55,58364,18.31,74548.3,4.29,-30.73,-31.11,0,*7B
1496009073.78,58365,18.31,74544.3,4.31,-30.45,-30.83,0,*7C
1496009075.0,58366,18.31,74550.0,4.27,-30.77,-31.05,0,*76
1496009076.22,58367,18.31,74544.5,4.27,-30.89,-31.29,0,*78
1496009077.45,58368,18.31,74546.8,4.27,-30.89,-31.29,0,*77
1496009078.67,58369,18.31,74546.0,4.27,-30.89,-31.29,0,*76
1496009079.9,58370,18.31,74544.5,4.29,-30.83,-31.11,0,*71
1496009081.15,58371,18.31,74544.5,4.27,-30.77,-31.11,0,*75
1496009082.39,58372,18.31,74546.5,4.27,-30.73,-31.11,0,*72
1496009083.61,58373,18.31,74548.3,4.27,-30.77,-31.17,0,*71
1496009084.86,58374,18.31,74544.5,4.27,-30.77,-31.11,0,*70
1496009086.08,58375,18.31,74550.0,4.27,-30.95,-31.33,0,*7D
1496009087.3,58376,18.31,74544.8,4.27,-30.89,-31.33,0,*73
1496009088.55,58377,18.31,74550.0,4.25,-30.89,-31.29,0,*7B
1496009089.76,58378,18.31,74548.3,4.27,-30.89,-31.33,0,*7D
1496009090.99,58379,18.31,74546.8,4.27,-30.77,-31.17,0,*7B
1496009092.23,58380,18.31,74548.3,4.25,-30.77,-31.29,0,*72
1496009093.48,58381,18.31,74546.0,4.25,-30.77,-31.29,0,*73
1496009094.7,58382,18.31,74550.5,4.27,-30.77,-31.29,0,*72
1496009095.95,58383,18.31,74546.8,4.25,-30.77,-31.17,0,*7C
1496009097.19,58384,18.31,74546.0,4.25,-30.55,-31.05,0,*78
1496009098.44,58385,18.31,74546.0,4.25,-30.73,-31.17,0,*7E
1496009099.69,58386,18.31,74548.0,4.25,-30.89,-31.29,0,*75
1496009100.96,58387,18.31,74546.5,4.25,-30.77,-31.11,0,*7E
1496009102.24,58388,18.31,74544.8,4.25,-30.77,-31.11,0,*71
1496009103.46,58389,18.31,74544.5,4.23,-30.61,-31.17,0,*77
1496009104.7,58390,18.31,74544.3,4.25,-30.77,-31.33,0,*78
1496009105.95,58391,18.31,74546.5,4.25,-30.89,-31.29,0,*73
1496009107.2,58392,18.25,74544.8,4.25,-30.77,-31.17,0,*7C
1496009108.45,58393,18.31,74546.5,4.25,-30.77,-31.29,0,*70
1496009109.7,58394,18.31,74546.8,4.25,-30.73,-31.17,0,*7E
1496009110.94,58395,18.31,74546.5,4.25,-30.77,-31.33,0,*7D
1496009112.21,58396,18.31,74546.5,4.25,-30.77,-31.11,0,*7E
1496009113.41,58397,18.31,74544.3,4.23,-30.83,-31.33,0,*72
1496009114.69,58398,18.31,74548.5,4.25,-30.77,-31.11,0,*70
1496009115.96,58399,18.31,74548.3,4.25,-30.73,-31.11,0,*75
1496009117.21,58400,18.31,74546.0,4.25,-30.73,-31.17,0,*74
1496009118.45,58401,18.31,74544.8,4.27,-30.73,-31.11,0,*71
1496009119.7,58402,18.31,74546.5,4.25,-30.73,-31.17,0,*76
1496009120.98,58403,18.31,74544.5,4.25,-30.77,-31.11,0,*75
1496009122.19,58404,18.31,74544.8,4.27,-30.61,-31.05,0,*72
1496009123.43,58405,18.31,74546.5,4.27,-30.61,-30.95,0,*7B
1496009124.68,58406,18.31,74544.5,4.25,-30.61,-31.17,0,*71
1496009125.92,58407,18.31,74546.0,4.25,-30.61,-31.05,0,*73
1496009127.16,58408,18.31,74546.8,4.25,-30.55,-31.05,0,*7B
1496009128.38,58409,18.31,74546.0,4.29,-30.55,-31.01,0,*72
1496009129.61,58410,18.25,74542.0,4.23,-30.67,-31.23,0,*71
1496009130.85,58411,18.25,74542.0,4.25,-30.73,-31.05,0,*77
1496009132.12,58412,18.31,74548.0,4.25,-30.55,-30.95,0,*78
1496009133.36,58413,18.31,74546.3,4.25,-30.61,-31.05,0,*76
1496009134.6,58414,18.31,74546.5,4.25,-30.61,-31.05,0,*71
1496009135.86,58415,18.31,74548.3,4.25,-30.55,-30.95,0,*7F
1496009137.08,58416,18.31,74542.5,4.27,-30.61,-31.05,0,*71
1496009138.29,58417,18.31,74544.3,4.27,-30.55,-31.05,0,*77
1496009139.5,58418,18.31,74544.8,4.29,-30.67,-31.05,0,*77
1496009140.72,58419,18.31,74544.8,4.27,-30.73,-31.17,0,*7E
1496009141.97,58420,18.31,74544.0,4.25,-30.73,-31.17,0,*76
1496009143.24,58421,18.31,74544.8,4.25,-30.73,-31.11,0,*71
1496009144.48,58422,18.31,74544.3,4.27,-30.55,-30.89,0,*74
1496009145.76,58423,18.31,74546.3,4.25,-30.61,-30.89,0,*70
1496009147.0,58424,18.25,74544.0,4.25,-30.55,-31.05,0,*75
1496009148.22,58425,18.31,74546.0,4.27,-30.77,-31.17,0,*75
1496009149.47,58426,18.25,74542.0,4.27,-30.73,-31.11,0,*74
1496009150.71,58427,18.31,74548.3,4.27,-30.73,-31.11,0,*75
1496009151.96,58428,18.31,74546.0,4.27,-30.73,-31.11,0,*7A
1496009153.2,58429,18.31,74542.3,4.27,-30.77,-31.11,0,*7F
1496009154.45,58430,18.31,74544.8,4.27,-30.77,-31.11,0,*77
1496009155.69,58431,18.25,74540.3,4.27,-30.73,-31.11,0,*72
1496009156.94,58432,18.31,74544.3,4.27,-30.73,-31.11,0,*71
1496009158.16,58433,18.31,74546.0,4.27,-30.73,-31.17,0,*76
1496009159.41,58434,18.25,74540.8,4.25,-30.73,-31.05,0,*70
1496009160.61,58435,18.25,74542.8,4.23,-30.83,-31.17,0,*7B
1496009161.86,58436,18.31,74542.5,4.23,-30.77,-31.11,0,*75
1496009163.08,58437,18.31,74546.8,4.27,-30.61,-31.05,0,*72
1496009164.28,58438,18.31,74546.0,4.29,-30.67,-31.01,0,*71
1496009165.5,58439,18.25,74542.3,4.27,-30.61,-31.05,0,*7C
1496009166.77,58440,18.31,74544.3,4.25,-30.61,-31.11,0,*75
1496009168.01,58441,18.31,74544.8,4.25,-30.61,-31.05,0,*71
1496009169.25,58442,18.31,74546.0,4.25,-30.55,-31.05,0,*75
1496009170.47,58443,18.31,74544.3,4.27,-30.77,-31.17,0,*75
1496009171.72,58444,18.31,74544.5,4.27,-30.73,-31.11,0,*70
1496009172.96,58445,18.31,74546.8,4.27,-30.77,-31.11,0,*75
1496009174.21,58446,18.25,74544.5,4.25,-30.61,-31.05,0,*76
1496009175.42,58447,18.31,74546.3,4.27,-30.61,-31.05,0,*75
1496009176.65,58448,18.25,74540.8,4.27,-30.77,-31.17,0,*7E
1496009177.87,58449,18.31,74544.5,4.27,-30.77,-31.29,0,*72
1496009179.12,58450,18.25,74542.3,4.25,-30.77,-31.29,0,*78
1496009180.39,58451,18.25,74544.5,4.25,-30.73,-31.11,0,*76
1496009181.66,58452,18.31,74546.5,4.25,-30.73,-31.11,0,*75
1496009182.93,58453,18.25,74544.5,4.25,-30.61,-30.95,0,*7A
1496009184.14,58454,18.25,74542.8,4.27,-30.61,-31.05,0,*77
1496009185.37,58455,18.25,74544.3,4.27,-30.77,-31.17,0,*72
1496009186.61,58456,18.31,74546.8,4.25,-30.77,-31.17,0,*73
1496009187.84,58457,18.25,74544.3,4.23,-30.77,-31.17,0,*74
1496009189.11,58458,18.25,74542.8,4.25,-30.61,-31.11,0,*7C
1496009190.38,58459,18.31,74546.8,4.25,-30.77,-31.11,0,*7A
1496009191.66,58460,18.31,74544.3,4.25,-30.73,-31.11,0,*74
1496009192.91,58461,18.31,74546.0,4.25,-30.77,-31.17,0,*77
1496009194.13,58462,18.31,74544.5,4.23,-30.61,-31.17,0,*75
1496009195.4,58463,18.31,74544.0,4.25,-30.61,-31.11,0,*74
1496009196.67,58464,18.31,74546.3,4.25,-30.77,-31.11,0,*74
1496009197.92,58465,18.25,74542.3,4.25,-30.77,-31.17,0,*73
1496009199.17,58466,18.31,74544.8,4.25,-30.73,-31.17,0,*74
1496009200.44,58467,18.31,74546.8,4.25,-30.73,-31.11,0,*73
1496009201.69,58468,18.25,74540.0,4.25,-30.77,-31.29,0,*73
1496009202.94,58469,18.25,74544.0,4.25,-30.77,-31.29,0,*72
1496009204.18,58470,18.25,74542.3,4.25,-30.73,-31.05,0,*70
1496009205.42,58471,18.25,74542.8,4.27,-30.61,-30.95,0,*78
1496009206.69,58472,18.25,74544.5,4.25,-30.61,-30.95,0,*79
1496009207.95,58473,18.25,74544.3,4.25,-30.55,-30.95,0,*7F
1496009209.18,58474,18.25,74540.3,4.23,-30.67,-31.11,0,*72
1496009210.45,58475,18.31,74546.0,4.25,-30.61,-31.11,0,*73
1496009211.7,58476,18.25,74542.8,4.25,-30.77,-31.29,0,*7C
1496009212.92,58477,18.25,74546.3,4.23,-30.61,-31.17,0,*71
1496009214.14,58478,18.25,74546.8,4.23,-30.77,-31.01,0,*7E
1496009215.38,58479,18.25,74546.3,4.25,-30.61,-31.05,0,*7A
1496009216.64,58480,18.25,74542.8,4.23,-30.77,-31.23,0,*79
1496009217.89,58481,18.25,74544.0,4.25,-30.77,-31.17,0,*79
1496009219.12,58482,18.25,74544.0,4.25,-30.45,-30.95,0,*70
1496009220.37,58483,18.25,74546.3,4.25,-30.73,-31.17,0,*7F
1496009221.65,58484,18.31,74546.3,4.25,-30.73,-31.11,0,*7E
1496009222.9,58485,18.31,74544.8,4.25,-30.83,-31.23,0,*71
1496009224.12,58486,18.25,74544.0,4.23,-30.83,-31.39,0,*7F
1496009225.38,58487,18.25,74542.3,4.23,-30.77,-31.23,0,*7E
1496009226.6,58488,18.25,74544.5,4.23,-30.67,-31.11,0,*71
1496009227.83,58489,18.25,74544.8,4.23,-30.83,-31.39,0,*70
1496009229.08,58490,18.31,74544.5,4.25,-30.77,-31.17,0,*79
1496009230.32,58491,18.25,74544.8,4.23,-30.61,-31.11,0,*7F
1496009231.57,58492,18.25,74546.5,4.25,-30.77,-31.05,0,*78
1496009232.84,58493,18.31,74544.0,4.25,-30.61,-31.11,0,*7B
1496009234.07,58494,18.31,74546.3,4.23,-30.67,-31.11,0,*7C
1496009235.31,58495,18.25,74542.0,4.25,-30.77,-31.29,0,*71
1496009236.52,58496,18.31,74544.5,4.23,-30.83,-31.17,0,*72
1496009237.74,58497,18.25,74540.3,4.23,-30.77,-31.17,0,*78
1496009239.02,58498,18.25,74542.0,4.25,-30.73,-31.11,0,*73
1496009240.27,58499,18.25,74540.5,4.23,-30.77,-31.11,0,*70
1496009241.46,58500,18.25,74546.5,4.23,-30.67,-31.01,0,*71
1496009242.67,58501,18.25,74542.3,4.23,-30.67,-31.17,0,*77
1496009243.87,58502,18.25,74542.8,4.23,-30.67,-31.01,0,*73
1496009245.12,58503,18.25,74546.0,4.23,-30.77,-31.11,0,*72
1496009246.33,58504,18.25,74546.3,4.23,-30.61,-31.01,0,*73
1496009247.58,58505,18.25,74542.5,4.25,-30.61,-31.05,0,*70
1496009248.8,58506,18.25,74542.3,4.23,-30.67,-31.11,0,*76
1496009250.0,58507,18.25,74544.0,4.23,-30.83,-31.33,0,*7D
1496009251.23,58508,18.25,74540.5,4.23,-30.67,-31.11,0,*78
1496009252.45,58509,18.25,74544.5,4.27,-30.77,-31.29,0,*77
1496009253.7,58510,18.31,74546.5,4.23,-30.77,-31.11,0,*70
1496009254.93,58511,18.25,74542.0,4.23,-30.83,-31.23,0,*7B
1496009256.18,58512,18.25,74542.5,4.21,-30.77,-31.17,0,*76
1496009257.43,58513,18.25,74544.0,4.23,-30.77,-31.11,0,*73
1496009258.65,58514,18.25,74542.3,4.23,-30.67,-30.95,0,*78
1496009259.9,58515,18.25,74542.3,4.23,-30.51,-30.95,0,*7C
1496009261.14,58516,18.31,74544.0,4.23,-30.61,-31.11,0,*71
1496009262.37,58517,18.25,74546.0,4.23,-30.77,-31.17,0,*71
1496009263.6,58518,18.25,74542.5,4.23,-30.67,-31.11,0,*79
1496009264.85,58519,18.25,74542.5,4.23,-30.77,-31.11,0,*79
1496009266.07,58520,18.31,74544.0,4.23,-30.77,-31.17,0,*75
1496009267.31,58521,18.25,74544.0,4.23,-30.55,-30.95,0,*7F
1496009268.56,58522,18.25,74540.5,4.21,-30.67,-31.11,0,*72
1496009269.82,58523,18.25,74542.8,4.21,-30.83,-31.51,0,*7D
1496009271.06,58524,18.25,74546.0,4.21,-30.61,-31.01,0,*73
1496009272.33,58525,18.25,74544.3,4.25,-30.61,-31.11,0,*77
1496009273.58,58526,18.25,74542.8,4.23,-30.61,-31.11,0,*72
1496009274.8,58527,18.25,74540.8,4.23,-30.61,-31.01,0,*72
1496009276.0,58528,18.25,74544.3,4.23,-30.83,-31.17,0,*76
1496009277.24,58529,18.25,74544.3,4.25,-30.55,-31.05,0,*79
1496009278.47,58530,18.25,74544.3,4.23,-30.83,-31.23,0,*78
1496009279.69,58531,18.25,74540.3,4.23,-31.01,-31.39,0,*79
1496009280.94,58532,18.25,74544.3,4.23,-30.95,-31.23,0,*7D
1496009282.2,58533,18.25,74546.0,4.21,-30.83,-31.23,0,*79
1496009283.42,58534,18.25,74546.0,4.23,-30.77,-31.17,0,*70
1496009284.65,58535,18.25,74546.5,4.21,-30.67,-31.17,0,*72
1496009285.88,58536,18.25,74546.5,4.23,-30.83,-31.23,0,*7E
1496009287.11,58537,18.25,74544.3,4.21,-30.83,-31.33,0,*7C
1496009288.36,58538,18.25,74542.8,4.21,-30.83,-31.11,0,*73
1496009289.64,58539,18.25,74542.0,4.21,-30.77,-31.23,0,*78
1496009290.89,58540,18.25,74540.5,4.19,-30.89,-31.39,0,*77
1496009292.16,58541,18.25,74540.3,4.21,-30.77,-31.11,0,*76
1496009293.42,58542,18.25,74542.0,4.21,-30.67,-31.11,0,*74
1496009294.62,58543,18.25,74544.5,4.19,-30.83,-31.17,0,*72
1496009295.85,58544,18.25,74542.0,4.19,-30.73,-31.29,0,*77
1496009297.1,58545,18.25,74542.8,4.21,-30.77,-31.17,0,*74
1496009298.35,58546,18.25,74542.3,4.23,-30.77,-31.11,0,*73
1496009299.59,58547,18.25,74542.0,4.25,-30.73,-31.05,0,*75
1496009300.85,58548,18.25,74546.3,4.21,-30.77,-31.17,0,*79
1496009302.1,58549,18.25,74542.3,4.23,-30.77,-31.11,0,*7C
1496009303.32,58550,18.25,74542.3,4.19,-30.89,-31.29,0,*77
1496009304.55,58551,18.25,74544.5,4.21,-30.83,-31.17,0,*7A